Tucson, AZ

5:31 PM MST on December 09, 2016 (GMT -0700)
Tucson International

Weather History for KTUS - August, 2014

Change the Weather History Date:

Tuesday, August 12, 2014

  Actual Average Record
Temperature  
Mean Temperature 83 °F 85 °F  
Max Temperature 94 °F 97 °F 109 °F (2012)
Min Temperature 72 °F 74 °F 57 °F (1900)
Degree Days  
Heating Degree Days 0 0  
Month to date heating degree days 0 0  
Since 1 June heating degree days 0 0  
Since 1 July heating degree days 0 0  
Cooling Degree Days 18 20  
Month to date cooling degree days 261 246  
Year to date cooling degree days 2319 2025  
Since 1 June cooling degree days 1716 1523  
Growing Degree Days 32 (Base 50)    
Moisture  
Dew Point 65 °F    
Average Humidity 58    
Maximum Humidity 82    
Minimum Humidity 33    
Precipitation  
Precipitation 0.21 in 0.08 in 1.38 in (1966)
Month to date precipitation 0.72 1.00  
Year to date precipitation 2.76 6.52  
Sea Level Pressure  
Sea Level Pressure 29.92 in    
Wind  
Wind Speed 8 mph (South)    
Max Wind Speed 25 mph    
Max Gust Speed 36 mph    
Visibility 9 miles    
Events Rain , Thunderstorm    
T = Trace of Precipitation, MM = Missing Value Source: NWS Daily Summary

Daily Weather History Graph

Daily Weather History Graph

Search for Another Location

Airport or City:

Trip Planner

Search our weather history database for the weather conditions in past years. The results will help you decide how hot, cold, wet, or windy it might be!

Date:

Astronomy

Aug. 12, 2014 Rise Set
Actual Time 5:46 AM MST 7:10 PM MST
Civil Twilight 5:20 AM MST 7:36 PM MST
Nautical Twilight 4:49 AM MST 8:07 PM MST
Astronomical Twilight 4:16 AM MST 8:40 PM MST
Moon 8:33 PM MST (8/12) 7:56 AM MST (8/12)
Length of Visible Light 14h 16m
Length of Day
13h 24m
Waning Gibbous, 94% of the Moon is Illuminated
Aug 12
Waning Gibbous
Aug 17
Last Quarter
Aug 25
New
Sep 2
First Quarter
Sep 8
Full

Hourly Weather History & Observations

Time (MST) Temp. Heat Index Dew Point Humidity Pressure Visibility Wind Dir Wind Speed Gust Speed Precip Events Conditions
12:53 AM 84.0 °F 84.9 °F 63.0 °F 49% 29.86 in 10.0 mi Calm Calm - N/A   Clear
1:53 AM 84.9 °F 85.0 °F 61.0 °F 44% 29.84 in 10.0 mi South 3.5 mph - N/A   Clear
2:53 AM 86.0 °F 86.1 °F 61.0 °F 43% 29.86 in 10.0 mi ESE 6.9 mph - N/A   Partly Cloudy
4:53 AM 84.9 °F 85.0 °F 61.0 °F 44% 29.88 in 10.0 mi ESE 6.9 mph - N/A   Mostly Cloudy
5:53 AM 82.0 °F 83.4 °F 64.0 °F 54% 29.89 in 10.0 mi South 9.2 mph - N/A   Mostly Cloudy
6:53 AM 82.0 °F 83.4 °F 64.0 °F 54% 29.90 in 10.0 mi SE 8.1 mph - N/A   Partly Cloudy
7:53 AM 82.9 °F 84.4 °F 64.0 °F 53% 29.91 in 10.0 mi SSE 8.1 mph - N/A   Clear
8:53 AM 87.1 °F 87.8 °F 63.0 °F 44% 29.90 in 10.0 mi SSW 10.4 mph - N/A   Clear
10:53 AM 91.9 °F 91.5 °F 60.1 °F 34% 29.89 in 10.0 mi East 12.7 mph 17.3 mph N/A   Mostly Cloudy
11:53 AM 90.0 °F 90.0 °F 61.0 °F 38% 29.87 in 10.0 mi Calm Calm - 0.00 in Rain Light Rain
12:53 PM 91.9 °F 90.8 °F 57.9 °F 32% 29.83 in 10.0 mi ESE 10.4 mph - 0.00 in Rain Light Rain
1:15 PM 91.4 °F 89.9 °F 57.2 °F 31% 30.00 in 10.0 mi SSW 6.9 mph - N/A Thunderstorm Mostly Cloudy
1:35 PM 87.1 °F 87.8 °F 63.0 °F 44% 30.01 in 6.0 mi SSW 8.1 mph 27.6 mph 0.00 in Rain Light Rain
1:51 PM 75.2 °F - 68.0 °F 78% 30.04 in 4.0 mi SW 19.6 mph 29.9 mph 0.03 in Rain , Thunderstorm Heavy Thunderstorms and Rain
1:53 PM 73.9 °F - 68.0 °F 82% 29.91 in 4.0 mi SW 19.6 mph 29.9 mph 0.03 in Rain , Thunderstorm Thunderstorms and Rain
2:30 PM 72.0 °F - 68.0 °F 87% 30.04 in 2.0 mi WSW 9.2 mph - 0.09 in Rain , Thunderstorm Heavy Rain
2:43 PM 72.0 °F - 66.9 °F 84% 30.03 in 7.0 mi West 5.8 mph - 0.14 in Rain Light Rain
2:53 PM 72.0 °F - 66.9 °F 84% 29.91 in 10.0 mi WNW 10.4 mph - 0.14 in Rain , Thunderstorm Light Rain
3:07 PM 72.0 °F - 68.0 °F 87% 30.04 in 7.0 mi NNW 9.2 mph - 0.02 in Rain Rain
3:53 PM 75.0 °F - 68.0 °F 79% 29.91 in 10.0 mi NE 4.6 mph - 0.04 in   Partly Cloudy
4:53 PM 75.9 °F - 70.0 °F 82% 29.90 in 10.0 mi West 5.8 mph - N/A   Scattered Clouds
5:53 PM 75.9 °F - 70.0 °F 82% 29.91 in 10.0 mi South 9.2 mph - N/A   Partly Cloudy
6:53 PM 75.9 °F - 69.1 °F 79% 29.92 in 10.0 mi SSE 10.4 mph - 0.00 in Rain Light Rain
7:53 PM 77.0 °F - 68.0 °F 74% 29.91 in 10.0 mi SE 9.2 mph - 0.00 in   Clear
8:53 PM 77.0 °F - 64.9 °F 66% 29.91 in 10.0 mi SE 6.9 mph - N/A   Clear
9:53 PM 75.9 °F - 64.9 °F 69% 29.93 in 10.0 mi SE 15.0 mph - N/A   Clear
10:53 PM 75.0 °F - 68.0 °F 79% 29.92 in 10.0 mi South 5.8 mph - N/A   Clear
11:53 PM 75.0 °F - 68.0 °F 79% 29.92 in 10.0 mi SE 5.8 mph - N/A   Clear